GW5357 Weather Reports


time (UTC)temp
C
wind
direction
speed
KPH
gust
KPH
rain 1hr
cm
rain 24hr
cm
rain mn
cm
humidity
%
barometer
mb
20260905091503 12 314 0.0 3.2 0.00 0.00 0.00 92 1017.0
20260905091003 12 324 1.6 3.2 0.00 0.00 0.00 92 1016.9
20260905090502 12 331 1.6 3.2 0.00 0.00 0.00 92 1016.9
20260905085002 12 324 1.6 1.6 0.00 0.00 0.00 92 1016.8
20260905084503 12 360 1.6 3.2 0.00 0.00 0.00 92 1016.8
20260905083502 12 340 1.6 3.2 0.00 0.00 0.00 92 1016.6
20260905083003 12 327 1.6 3.2 0.00 0.00 0.00 92 1016.6
20260905082503 12 340 1.6 3.2 0.00 0.00 0.00 91 1016.6
20260905082001 12 269 0.0 1.6 0.00 0.00 0.00 91 1016.7
20260905081003 12 314 1.6 3.2 0.00 0.00 0.00 91 1016.8
20260905080502 12 314 1.6 3.2 0.00 0.00 0.00 91 1016.9
20260905080007 12 314 1.6 3.2 0.00 0.00 0.00 91 1016.8
20260905075503 12 331 1.6 3.2 0.00 0.00 0.00 91 1016.7
20260905075003 12 314 0.0 1.6 0.00 0.00 0.00 91 1016.8
20260905074502 12 1 1.6 1.6 0.00 0.00 0.00 91 1016.8
20260905074002 12 46 0.0 3.2 0.00 0.00 0.00 91 1016.9
20260905073003 12 331 1.6 3.2 0.00 0.00 0.00 91 1016.8
20260905072502 12 340 1.6 3.2 0.00 0.00 0.00 91 1016.8
20260905072003 12 331 1.6 3.2 0.00 0.00 0.00 91 1016.8
20260905071502 12 286 0.0 1.6 0.00 0.00 0.00 90 1016.7
20260905071003 12 1 0.0 1.6 0.00 0.00 0.00 90 1016.7
20260905070502 12 1 1.6 1.6 0.00 0.00 0.00 90 1016.6
20260905065504 13 46 0.0 3.2 0.00 0.00 0.00 90 1016.6
20260905064505 13 135 0.0 3.2 0.00 0.00 0.00 90 1016.4
20260905064004 13 324 1.6 3.2 0.00 0.00 0.00 90 1016.4
20260905063504 13 314 0.0 3.2 0.00 0.00 0.00 90 1016.3
20260905063006 13 321 1.6 3.2 0.00 0.00 0.00 89 1016.3
20260905062504 13 1 0.0 1.6 0.00 0.00 0.00 90 1016.4
20260905062004 13 46 0.0 3.2 0.00 0.00 0.00 90 1016.4
20260905061505 13 89 1.6 3.2 0.00 0.00 0.00 90 1016.4
20260905061005 13 46 0.0 3.2 0.00 0.00 0.00 89 1016.4
20260905060504 13 324 1.6 3.2 0.00 0.00 0.00 89 1016.4
20260905055504 13 46 0.0 3.2 0.00 0.00 0.00 89 1016.4
20260905054505 13 344 1.6 3.2 0.00 0.00 0.00 89 1016.3
20260905054005 13 1 1.6 3.2 0.00 0.00 0.00 89 1016.3
20260905053503 13 340 1.6 3.2 0.00 0.00 0.00 89 1016.4
20260905053006 13 331 0.0 3.2 0.00 0.00 0.00 89 1016.4
20260905052503 13 46 1.6 3.2 0.00 0.00 0.00 89 1016.5
20260905052005 13 321 1.6 3.2 0.00 0.00 0.00 89 1016.5
20260905051505 13 28 0.0 3.2 0.00 0.00 0.00 89 1016.5
20260905051005 13 324 0.0 3.2 0.00 0.00 0.00 88 1016.6
20260905050504 13 1 1.6 3.2 0.00 0.00 0.00 88 1016.6
20260905050007 13 135 0.0 3.2 0.00 0.00 0.00 88 1016.5
20260905045504 13 331 1.6 3.2 0.00 0.00 0.00 88 1016.5
20260905045006 13 344 0.0 3.2 0.00 0.00 0.00 88 1016.6
20260905044505 13 1 1.6 3.2 0.00 0.00 0.00 88 1016.6
20260905043005 13 46 0.0 1.6 0.00 0.00 0.00 87 1016.5
20260905042004 13 269 0.0 1.6 0.00 0.00 0.00 87 1016.5
20260905041005 13 46 0.0 1.6 0.00 0.00 0.00 86 1016.4
20260905040504 13 152 0.0 1.6 0.00 0.00 0.00 86 1016.4
20260905040008 13 135 1.6 3.2 0.00 0.00 0.00 85 1016.4
20260905034005 14 46 0.0 3.2 0.00 0.00 0.00 82 1016.3
20260905033007 15 296 0.0 1.6 0.00 0.00 0.00 81 1016.3
20260905032505 15 1 0.0 1.6 0.00 0.00 0.00 81 1016.3
20260905032005 15 1 0.0 1.6 0.00 0.00 0.00 81 1016.2
20260905031504 15 331 0.0 1.6 0.00 0.00 0.00 81 1016.1
20260905030503 15 117 0.0 3.2 0.00 0.00 0.00 78 1015.9
20260905025504 15 314 1.6 3.2 0.00 0.00 0.00 77 1015.8
20260905024504 16 28 0.0 1.6 0.00 0.00 0.00 75 1015.6
20260905024006 16 1 0.0 3.2 0.00 0.00 0.00 75 1015.6
20260905023504 16 1 1.6 4.8 0.00 0.00 0.00 74 1015.5
20260905023005 16 1 3.2 4.8 0.00 0.00 0.00 73 1015.6
20260905022505 16 303 1.6 3.2 0.00 0.00 0.00 74 1015.6
20260905022005 16 303 1.6 3.2 0.00 0.00 0.00 73 1015.5
20260905021506 17 314 1.6 4.8 0.00 0.00 0.00 72 1015.5
20260905021006 17 314 1.6 3.2 0.00 0.00 0.00 70 1015.4
20260905020505 17 314 1.6 3.2 0.00 0.00 0.00 70 1015.4
20260905020008 17 1 0.0 3.2 0.00 0.00 0.00 70 1015.5
20260905015505 17 46 1.6 3.2 0.00 0.00 0.00 68 1015.4
20260905015005 17 89 0.0 3.2 0.00 0.00 0.00 67 1015.4
20260905014005 17 28 1.6 4.8 0.00 0.00 0.00 65 1015.3
20260905013505 18 1 1.6 4.8 0.00 0.00 0.00 66 1015.3
20260905013006 18 349 1.6 4.8 0.00 0.00 0.00 64 1015.3
20260905012004 18 1 1.6 4.8 0.00 0.00 0.00 64 1015.2
20260905011504 18 310 1.6 4.8 0.00 0.00 0.00 63 1015.2
20260905011004 18 35 1.6 4.8 0.00 0.00 0.00 62 1015.2
20260905010503 18 340 3.2 6.4 0.00 0.00 0.00 62 1015.2
20260905010005 18 340 3.2 6.4 0.00 0.00 0.00 62 1015.1
20260905005504 18 20 1.6 4.8 0.00 0.00 0.00 63 1015.1
20260905005004 18 1 1.6 4.8 0.00 0.00 0.00 63 1015.0
20260905004505 18 319 1.6 9.7 0.00 0.00 0.00 63 1014.9
20260905004004 18 1 1.6 9.7 0.00 0.00 0.00 64 1014.9
20260905003505 18 344 3.2 6.4 0.00 0.00 0.00 66 1014.9
20260905003006 18 336 3.2 6.4 0.00 0.00 0.00 67 1014.9
20260905002504 18 340 3.2 6.4 0.00 0.00 0.00 65 1014.9
20260905002005 18 314 3.2 8.0 0.00 0.00 0.00 65 1014.8
20260905001004 18 46 1.6 8.0 0.00 0.00 0.00 66 1014.8
20260905000503 18 269 3.2 8.0 0.00 0.00 0.00 66 1014.8
20260905000006 18 46 1.6 6.4 0.00 0.00 0.00 66 1014.8
20260904235503 18 269 1.6 4.8 0.00 0.00 0.00 67 1014.8
20260904235004 18 46 1.6 4.8 0.00 0.00 0.00 67 1014.8
20260904234504 18 342 3.2 8.0 0.00 0.00 0.00 66 1014.7
20260904234004 18 350 4.8 8.0 0.00 0.00 0.00 66 1014.6
20260904233006 17 314 1.6 8.0 0.00 0.00 0.00 67 1014.7
20260904232503 17 1 4.8 8.0 0.00 0.00 0.00 67 1014.7
20260904232004 17 296 3.2 9.7 0.00 0.00 0.00 66 1014.7
20260904231503 17 341 4.8 11.3 0.00 0.00 0.00 67 1014.7
20260904231003 17 343 3.2 11.3 0.00 0.00 0.00 68 1014.6
20260904230006 17 340 3.2 6.4 0.00 0.00 0.00 68 1014.7
20260904225003 17 303 4.8 11.3 0.00 0.00 0.00 69 1014.7
20260904224503 17 276 4.8 9.7 0.00 0.00 0.00 68 1014.7
20260904224003 18 258 4.8 9.7 0.00 0.00 0.00 66 1014.7
20260904223003 18 300 3.2 11.3 0.00 0.00 0.00 67 1014.7
20260904222005 18 318 4.8 12.9 0.00 0.00 0.00 63 1014.7
20260904221004 18 20 6.4 12.9 0.00 0.00 0.00 64 1014.6
20260904220503 18 314 4.8 12.9 0.00 0.00 0.00 63 1014.7
20260904220004 18 353 3.2 11.3 0.00 0.00 0.00 64 1014.6
20260904215503 18 331 3.2 11.3 0.00 0.00 0.00 63 1014.6
20260904215005 19 300 4.8 11.3 0.00 0.00 0.00 62 1014.6
20260904214503 19 336 4.8 11.3 0.00 0.00 0.00 62 1014.6
20260904214004 19 286 3.2 9.7 0.00 0.00 0.00 62 1014.5
20260904213004 20 314 4.8 12.9 0.00 0.00 0.00 63 1014.5
20260904212504 19 223 6.4 12.9 0.00 0.00 0.00 63 1014.5
20260904211504 19 108 4.8 11.3 0.00 0.00 0.00 63 1014.6
20260904211004 19 206 3.2 12.9 0.00 0.00 0.00 65 1014.5
20260904210507 19 283 4.8 11.3 0.00 0.00 0.00 65 1014.5
20260904210006 18 326 3.2 11.3 0.00 0.00 0.00 67 1014.5
20260904205503 18 189 3.2 16.1 0.00 0.00 0.00 68 1014.6
20260904205004 19 1 4.8 12.9 0.00 0.00 0.00 66 1014.5
20260904204503 19 316 3.2 11.3 0.00 0.00 0.00 66 1014.4
20260904203503 18 260 4.8 11.3 0.00 0.00 0.00 68 1014.5
20260904203006 18 290 3.2 12.9 0.00 0.00 0.00 69 1014.5
20260904202503 18 72 6.4 12.9 0.00 0.00 0.00 69 1014.5
20260904202004 17 178 3.2 8.0 0.00 0.00 0.00 71 1014.5
20260904201504 17 193 3.2 9.7 0.00 0.00 0.00 71 1014.4
20260904201005 17 192 4.8 12.9 0.00 0.00 0.00 72 1014.4
20260904200502 17 269 4.8 12.9 0.00 0.00 0.00 70 1014.4
20260904200008 17 317 3.2 11.3 0.00 0.00 0.00 70 1014.5
20260904195503 17 276 4.8 14.5 0.00 0.00 0.00 70 1014.5
20260904195004 17 117 4.8 14.5 0.00 0.00 0.00 72 1014.5
20260904194504 17 296 3.2 9.7 0.00 0.00 0.00 71 1014.6
20260904193503 17 262 6.4 11.3 0.00 0.00 0.00 71 1014.6
20260904193003 17 223 3.2 11.3 0.00 0.00 0.00 72 1014.5
20260904192503 17 284 3.2 11.3 0.00 0.00 0.00 71 1014.5
20260904192004 17 149 6.4 11.3 0.00 0.00 0.00 71 1014.6
20260904191506 17 290 3.2 8.0 0.00 0.00 0.00 72 1014.5
20260904191004 17 135 3.2 8.0 0.00 0.00 0.00 74 1014.5
20260904190504 17 254 3.2 11.3 0.00 0.00 0.00 75 1014.5
20260904190004 17 344 3.2 11.3 0.00 0.00 0.00 74 1014.4
20260904185503 17 301 3.2 11.3 0.00 0.00 0.00 74 1014.4
20260904185003 17 257 4.8 11.3 0.00 0.00 0.00 74 1014.4
20260904184504 17 283 4.8 11.3 0.00 0.00 0.00 75 1014.4
20260904184003 17 296 6.4 11.3 0.00 0.00 0.00 75 1014.3
20260904183505 16 213 3.2 9.7 0.00 0.00 0.00 76 1014.4
20260904183004 16 25 3.2 9.7 0.00 0.00 0.00 76 1014.4
20260904182503 16 311 4.8 12.9 0.00 0.00 0.00 75 1014.3
20260904182003 16 189 3.2 12.9 0.00 0.00 0.00 75 1014.2
20260904181504 17 178 3.2 9.7 0.00 0.00 0.00 75 1014.2
20260904180503 17 178 3.2 9.7 0.00 0.00 0.00 77 1014.2
20260904180008 16 144 3.2 9.7 0.00 0.00 0.00 78 1014.2
20260904175505 16 218 3.2 8.0 0.00 0.00 0.00 78 1014.2
20260904175004 16 319 3.2 8.0 0.00 0.00 0.00 79 1014.2
20260904174503 16 269 3.2 8.0 0.00 0.00 0.00 80 1014.2
20260904174005 16 56 1.6 11.3 0.00 0.00 0.00 80 1014.2
20260904173503 15 314 6.4 11.3 0.00 0.00 0.00 80 1014.1
20260904173006 15 135 3.2 9.7 0.00 0.00 0.00 80 1014.2
20260904172003 15 142 4.8 9.7 0.00 0.00 0.00 82 1013.9
20260904171504 15 340 3.2 8.0 0.00 0.00 0.00 83 1014.1
20260904171004 15 223 1.6 8.0 0.00 0.00 0.00 84 1014.1
20260904170504 14 213 3.2 8.0 0.00 0.00 0.00 85 1014.2
20260904170008 14 331 3.2 8.0 0.00 0.00 0.00 84 1014.3
20260904165503 13 269 4.8 8.0 0.00 0.00 0.00 85 1014.1
20260904165002 13 206 1.6 4.8 0.00 0.00 0.00 86 1014.1
20260904164503 13 46 3.2 6.4 0.00 0.00 0.00 87 1014.0
20260904163006 13 161 3.2 6.4 0.00 0.00 0.00 88 1014.1
20260904162504 13 178 1.6 8.0 0.00 0.00 0.00 88 1013.9
20260904162005 13 279 3.2 6.4 0.00 0.00 0.00 89 1013.8
20260904161005 13 269 3.2 4.8 0.00 0.00 0.00 90 1013.8
20260904160504 13 129 3.2 4.8 0.00 0.00 0.00 90 1013.9
20260904160007 13 152 1.6 4.8 0.00 0.00 0.00 91 1013.9
20260904155503 12 161 3.2 4.8 0.00 0.00 0.00 91 1013.7
20260904155003 12 135 1.6 3.2 0.00 0.00 0.00 91 1013.7
20260904154503 12 1 0.0 1.6 0.00 0.00 0.00 91 1013.8
20260904153503 12 314 0.0 1.6 0.00 0.00 0.00 91 1013.8
20260904151504 12 89 1.6 3.2 0.00 0.00 0.00 92 1013.6
20260904151004 11 152 1.6 3.2 0.00 0.00 0.00 92 1013.5
20260904150503 11 1 0.0 1.6 0.00 0.00 0.00 92 1013.5
20260904150003 11 296 0.0 1.6 0.00 0.00 0.00 92 1013.4
20260904145502 11 241 0.0 3.2 0.00 0.00 0.00 92 1013.4
20260904145003 11 1 1.6 3.2 0.00 0.00 0.00 92 1013.3
20260904144506 11 303 0.0 1.6 0.00 0.00 0.00 92 1013.2
20260904143004 11 1 1.6 3.2 0.00 0.00 0.00 92 1012.9
20260904142503 10 1 0.0 1.6 0.00 0.00 0.00 92 1012.8
20260904142003 10 46 0.0 1.6 0.00 0.00 0.00 92 1012.7
20260904141503 10 178 0.0 1.6 0.00 0.00 0.00 92 1012.6
20260904140503 10 135 0.0 3.2 0.00 0.00 0.00 92 1012.5
20260904140004 10 324 1.6 3.2 0.00 0.00 0.00 92 1012.5
20260904135502 10 314 1.6 3.2 0.00 0.00 0.00 92 1012.4
20260904134503 10 135 0.0 3.2 0.00 0.00 0.00 92 1012.4
20260904134003 10 314 0.0 3.2 0.00 0.00 0.00 92 1012.3
20260904133502 10 324 1.6 1.6 0.00 0.00 0.00 92 1012.2
20260904133004 10 1 0.0 3.2 0.00 0.00 0.00 92 1012.2
20260904132502 10 314 0.0 3.2 0.00 0.00 0.00 92 1012.2
20260904131503 10 1 1.6 3.2 0.00 0.00 0.00 92 1012.1
20260904130502 10 314 0.0 1.6 0.00 0.00 0.00 92 1012.1
20260904130003 10 324 1.6 1.6 0.00 0.00 0.00 92 1012.1
20260904125503 10 178 0.0 3.2 0.00 0.00 0.00 92 1012.0
20260904125004 10 314 1.6 3.2 0.00 0.00 0.00 92 1012.2
20260904124503 10 314 3.2 3.2 0.00 0.00 0.00 93 1012.2
20260904124003 10 327 1.6 3.2 0.00 0.00 0.00 92 1012.2
20260904123004 10 28 1.6 1.6 0.00 0.00 0.00 92 1012.1
20260904122503 10 1 0.0 3.2 0.00 0.00 0.00 92 1012.1
20260904121503 10 331 1.6 3.2 0.00 0.00 0.00 92 1011.9
20260904121003 10 324 1.6 3.2 0.00 0.00 0.00 92 1011.9
20260904120502 10 1 1.6 3.2 0.00 0.00 0.00 92 1011.9
20260904120004 10 89 0.0 3.2 0.00 0.00 0.00 92 1011.8
20260904115504 10 117 0.0 3.2 0.00 0.00 0.00 92 1011.7
20260904115003 10 1 1.6 3.2 0.00 0.00 0.00 92 1011.6
20260904114503 10 1 0.0 3.2 0.00 0.00 0.00 92 1011.6
20260904114003 10 124 1.6 3.2 0.00 0.00 0.00 91 1011.6
20260904113503 10 178 0.0 3.2 0.00 0.00 0.00 91 1011.6
20260904113004 10 331 1.6 3.2 0.00 0.00 0.00 91 1011.5
20260904112504 10 314 0.0 3.2 0.00 0.00 0.00 91 1011.6
20260904112005 10 324 1.6 1.6 0.00 0.00 0.00 91 1011.5
20260904111503 10 269 0.0 3.2 0.00 0.00 0.00 91 1011.4
20260904111004 10 20 1.6 3.2 0.00 0.00 0.00 91 1011.3
20260904110003 10 321 1.6 3.2 0.00 0.00 0.00 91 1011.3
20260904105003 10 336 1.6 3.2 0.00 0.00 0.00 92 1011.3
20260904104503 10 269 0.0 3.2 0.00 0.00 0.00 92 1011.4
20260904104003 10 46 1.6 3.2 0.00 0.00 0.00 92 1011.4
20260904103502 10 360 0.0 3.2 0.00 0.00 0.00 92 1011.3
20260904102503 9 324 1.6 3.2 0.00 0.00 0.00 92 1011.2
20260904102003 9 46 0.0 1.6 0.00 0.00 0.00 92 1011.1
20260904101503 9 46 0.0 1.6 0.00 0.00 0.00 92 1011.2
20260904101003 9 135 0.0 3.2 0.00 0.00 0.00 92 1011.2
20260904100004 9 340 1.6 1.6 0.00 0.00 0.00 92 1011.1
20260904095503 9 295 0.0 1.6 0.00 0.00 0.00 92 1011.1
20260904095003 9 360 0.0 1.6 0.00 0.00 0.00 92 1011.2
20260904094502 9 314 0.0 3.2 0.00 0.00 0.00 92 1011.2
20260904094003 9 344 3.2 3.2 0.00 0.00 0.00 92 1011.2
20260904093504 8 340 1.6 3.2 0.00 0.00 0.00 91 1011.1
20260904093005 8 296 0.0 1.6 0.00 0.00 0.00 91 1011.2
20260904092502 9 269 0.0 1.6 0.00 0.00 0.00 91 1011.2